Regional Weather Roundup
Issued by NWS

Home | Current Version | Previous Version | Text Only | Print | Product List | Glossary Off
Versions: 1 2 3 4 5 6 7 8 9 10 11 12 13 14 15 16 17 18 19 20 21 22 23 24 25 26 27 28 29 30 31 32 33 34 35 36 37 38 39 40 41 42 43 44 45 46 47 48 49 50

000
ASUS43 KLOT 101903
RWRIL

ILLINOIS REGIONAL WEATHER ROUNDUP
NATIONAL WEATHER SERVICE CHICAGO/ROMEOVILLE IL
100 PM CST SAT DEC 10 2016

NOTE: "FAIR" INDICATES FEW OR NO CLOUDS BELOW 12,000 FEET WITH NO
SIGNIFICANT WEATHER AND/OR OBSTRUCTIONS TO VISIBILITY.

* THESE STATIONS ARE NOT UNDER NWS QUALITY CONTROL. THEY ALSO MAY NOT
  REPORT WEATHER SUCH AS PRECIPITATION OR FOG.

ILZ001-002-007-009-015-016-024-102000-
NORTHWEST ILLINOIS

CITY           SKY/WX    TMP DP  RH WIND       PRES   REMARKS
MOLINE         CLOUDY    26  13  57 S7        30.42F WCI  18
STERLING*      CLOUDY    24  15  68 S6        30.43F WCI  17
SAVANNA*       CLOUDY    24  13  63 S6        30.42F WCI  17
$$

ILZ003-004-008-010-011-017-018-102000-
NORTH CENTRAL ILLINOIS

CITY           SKY/WX    TMP DP  RH WIND       PRES   REMARKS
ROCKFORD       CLOUDY    22  14  71 SW6       30.45F WCI  14
FREEPORT*      CLOUDY    20  14  76 S5        30.43F WCI  14
ROCHELLE*      CLOUDY    22  16  76 SW5       30.44F WCI  16
$$

ILZ005-006-012>014-019>023-102000-
NORTHEAST ILLINOIS

CITY           SKY/WX    TMP DP  RH WIND       PRES   REMARKS
CHICAGO-OHARE  CLOUDY    23  12  62 SW9       30.45F WCI  13
CHICAGO-MIDWAY CLOUDY    24  12  60 W12       30.46F WCI  13
AURORA         CLOUDY    24  15  68 S9        30.46F WCI  14
LANSING*       PTSUNNY   24  16  73 SW7       30.47F WCI  16
WAUKEGAN       MOSUNNY   23  12  62 SW7       30.43F WCI  15
DUPAGE AIRPORT CLOUDY    22  12  65 W7        30.44F WCI  13
KANKAKEE*      CLOUDY    26  15  63 CALM      30.48F
WHEELING       MOSUNNY   23  12  62 W6        30.46F WCI  16
MORRIS*        CLOUDY    25  14  64 CALM      30.46F
NORTHERLY ISL    N/A     24  13  62 SW8         N/A  WCI  15
$$

LMZ740>746-102000-
SOUTHERN LAKE MICHIGAN

STATION/POSITION SKY/WX   TEMP    WIND        PRES    VSBY  WAVE
                          AIR SEA DIR/SP/G                  HT/PER
                          (F)     (DEG/KT/KT) (MB)    (MI)  (FT/S)
BURNHAM HARBOR             24     250/  7/ 11   N/A
CALUMET HARBOR             24     230/  6/ 11 1030.9F
BURNS HARBOR               25     260/  7/ 14 1032.2F
$$

ILZ025>027-034>036-040-047-049-050-058-095>099-102000-
WEST-CENTRAL ILLINOIS

CITY           SKY/WX    TMP DP  RH WIND       PRES   REMARKS
QUINCY         CLOUDY    28  13  53 SE10      30.40F WCI  19
GALESBURG*     CLOUDY    26  15  61 SE7       30.42F WCI  19
MACOMB*        LGT SNOW  26  15  63 S10       30.44F WCI  17
JACKSONVILLE*  CLOUDY    28  12  50 SE9       30.43F WCI  19
PITTSFIELD*    CLOUDY    30  17  57 SE8       30.43F WCI  22
$$

ILZ028>032-037-038-041>044-048-051>054-059>061-102000-
CENTRAL ILLINOIS

CITY           SKY/WX    TMP DP  RH WIND       PRES   REMARKS
PONTIAC        CLOUDY    27  14  58 S3        30.47F
BLOOMINGTON    CLOUDY    26  15  63 S7        30.44F WCI  18
DECATUR        CLOUDY    28  16  60 S10       30.47F WCI  19
PEORIA         CLOUDY    27  13  55 S8        30.45F WCI  19
LACON*         CLOUDY    26  12  55 SW5       30.44F WCI  20
LINCOLN*       CLOUDY    28  14  54 S8        30.46F WCI  20
SPRINGFIELD    PTSUNNY   29  13  51 SE10      30.46F WCI  20
TAYLORVILLE    CLOUDY    28  15  59 CALM      30.46F
$$

ILZ033-039-045-046-055>057-062-063-102000-
EAST-CENTRAL ILLINOIS

CITY           SKY/WX    TMP DP  RH WIND       PRES   REMARKS
CHAMPAIGN      CLOUDY    27  15  61 SW8       30.47F WCI  19
RANTOUL*       CLOUDY    29  16  59 S7        30.46F WCI  22
MATTOON        CLOUDY    27  16  63 S7        30.47F WCI  19
PARIS*         CLOUDY    28  19  69 S7        30.50F WCI  20
$$

ILZ079-100>102-102000-
SOUTHWEST ILLINOIS

CITY           SKY/WX    TMP DP  RH WIND       PRES   REMARKS
ALTON          CLOUDY    32  18  55 SE12      30.45F WCI  23
BELLEVILLE     CLOUDY    33  19  56 SE9       30.44F WCI  25
CAHOKIA*       CLOUDY    34  17  50 SE10      30.45F WCI  26
SPARTA*        CLOUDY    32  17  55 S10       30.48F WCI  24
$$

ILZ064>066-069>071-074>076-080>082-084>086-088>090-092>094-102000-
SOUTH-CENTRAL ILLINOIS

CITY           SKY/WX    TMP DP  RH WIND       PRES   REMARKS
CARBONDALE     CLOUDY    33  20  58 S9        30.50F WCI  25
CAIRO*         SUNNY     37  19  47 SW5       30.51F WCI  34
EFFINGHAM*     CLOUDY    30  17  57 SE6       30.50F WCI  24
MARION         PTSUNNY   34  18  51 SW9       30.51F WCI  26
CENTRALIA*     CLOUDY    33  21  60 SE6       30.48F WCI  27
SALEM*         CLOUDY    33  18  54 SE7       30.48F WCI  27
METROPOLIS*    CLOUDY    36  16  43 S5        30.51F WCI  32
$$

ILZ067-068-072-073-078-083-087-091-102000-
SOUTHEAST ILLINOIS

CITY           SKY/WX    TMP DP  RH WIND       PRES   REMARKS
LAWRENCEVILLE  CLOUDY    30  17  58 SW6       30.52F WCI  24
FLORA*         CLOUDY    32  19  58 SE6       30.50F WCI  26
FAIRFIELD*     CLOUDY    32  19  57 CALM      30.50F
HARRISBURG*    CLOUDY    34  19  55 S6        30.51F WCI  29
ROBINSON*      CLOUDY    28  17  63 CALM      30.53F
CARMI*         CLOUDY    33  20  59 SE3       30.50F
$$

ABBREVIATIONS USED IN REMARKS
   TC - TEMPERATURE IN CELSIUS
  WCI - WIND CHILL INDEX
   HX - HEAT INDEX
  VSB - VISIBILITY
$$





USA.gov is the U.S. government's official web portal to all federal, state and local government web resources and services.